,,Stat5,,Stat1,,Stat2,,Stat3,,Stat4,,Wind1,,Wind1,
time,status,PA1M_AVG,status,PR1M_SUM,status,RH1M_AVG,status,SR1M_AVG,status,TA1M_AVG,status,W1dAve1m,status,W1sAve1m,
2002-03-07, 00:00:01,VALID,919.05,VALID,0,VALID,99.4954,VALID,-0.0679233,VALID,19.0418,VALID,59,VALID,0.0615234,
2002-03-07, 00:01:00,VALID,919.042,VALID,0,VALID,99.4929,VALID,-0.0849042,VALID,19.0552,VALID,71,VALID,0.304905,
2002-03-07, 00:02:00,VALID,919.027,VALID,0,VALID,99.4992,VALID,-0.0509425,VALID,19.0448,VALID,102,VALID,0.402734,
2002-03-07, 00:03:00,VALID,919.015,VALID,0,VALID,99.4929,VALID,-0.0679233,VALID,19.048,VALID,123,VALID,0.372991,
2002-03-07, 00:04:00,VALID,919.002,VALID,0,VALID,99.4929,VALID,-0.0509425,VALID,19.0524,VALID,125,VALID,0.355369,
2002-03-07, 00:05:00,VALID,918.993,VALID,0,VALID,99.4916,VALID,-0.0509425,VALID,19.0363,VALID,129,VALID,0.395508,
2002-03-07, 00:06:00,VALID,919.006,VALID,0,VALID,99.4992,VALID,-0.0679233,VALID,19.0425,VALID,126,VALID,0.355152,
2002-03-07, 00:07:00,VALID,919.008,VALID,0,VALID,99.4967,VALID,-0.0849042,VALID,19.0457,VALID,127,VALID,0.153582,
2002-03-07, 00:08:00,VALID,919.005,VALID,0.2,VALID,99.5043,VALID,-0.0679233,VALID,19.0393,VALID,127,VALID,0.00120192,
2002-03-07, 00:09:00,VALID,919.01,VALID,0,VALID,99.498,VALID,-0.0679233,VALID,19.0353,VALID,99,VALID,0,
2002-03-07, 00:10:00,VALID,919.015,VALID,0,VALID,99.4942,VALID,0.0509425,VALID,19.0373,VALID,44,VALID,0.185045,
2002-03-07, 00:11:00,VALID,919.023,VALID,0,VALID,99.5018,VALID,0.0339617,VALID,19.041,VALID,86,VALID,0.418945,
2002-03-07, 00:12:00,VALID,919.019,VALID,0,VALID,99.5107,VALID,0,VALID,19.0279,VALID,113,VALID,0.588672,
2002-03-07, 00:13:00,VALID,919.015,VALID,0,VALID,99.5056,VALID,0.0339617,VALID,19.0281,VALID,112,VALID,0.707422,
2002-03-07, 00:14:00,VALID,918.998,VALID,0,VALID,99.5056,VALID,0.0339617,VALID,19.0247,VALID,112,VALID,0.647804,
2002-03-07, 00:15:00,VALID,918.993,VALID,0,VALID,99.5132,VALID,0.0169808,VALID,19.0182,VALID,110,VALID,0.664063,
2002-03-07, 00:16:00,VALID,918.96,VALID,0,VALID,99.5132,VALID,0.0509425,VALID,19.0053,VALID,108,VALID,0.706027,
2002-03-07, 00:17:00,VALID,918.947,VALID,0,VALID,99.5132,VALID,0.0169808,VALID,19.012,VALID,108,VALID,0.899071,
2002-03-07, 00:18:00,VALID,918.933,VALID,0,VALID,99.5107,VALID,0.0169808,VALID,19.0087,VALID,89,VALID,0.898438,
2002-03-07, 00:19:00,VALID,918.915,VALID,0,VALID,99.512,VALID,0.0339617,VALID,19.0314,VALID,79,VALID,0.763021,
2002-03-07, 00:20:00,VALID,918.904,VALID,0,VALID,99.5043,VALID,0.0509425,VALID,19.0053,VALID,98,VALID,0.872796,
2002-03-07, 00:21:00,VALID,918.892,VALID,0,VALID,99.4954,VALID,0.0339617,VALID,18.9854,VALID,84,VALID,0.733036,
2002-03-07, 00:22:00,VALID,918.887,VALID,0,VALID,99.5132,VALID,0.0169808,VALID,18.9794,VALID,76,VALID,0.807566,
2002-03-07, 00:23:00,VALID,918.882,VALID,0,VALID,99.5209,VALID,0.0339617,VALID,18.9824,VALID,91,VALID,0.972155,
2002-03-07, 00:24:00,VALID,918.873,VALID,0,VALID,99.5094,VALID,0.0339617,VALID,18.966,VALID,92,VALID,1.06719,
2002-03-07, 00:25:00,VALID,918.871,VALID,0,VALID,99.5209,VALID,0.0169808,VALID,18.9628,VALID,103,VALID,0.957559,
2002-03-07, 00:26:00,VALID,918.861,VALID,0,VALID,99.5056,VALID,0.0169808,VALID,18.9764,VALID,104,VALID,0.865921,
2002-03-07, 00:27:00,VALID,918.86,VALID,0,VALID,99.517,VALID,0.0509425,VALID,18.976,VALID,110,VALID,0.791233,
2002-03-07, 00:28:00,VALID,918.839,VALID,0,VALID,99.5196,VALID,0.0169808,VALID,18.9792,VALID,118,VALID,0.921289,
2002-03-07, 00:29:00,VALID,918.833,VALID,0,VALID,99.5145,VALID,0.0169808,VALID,18.9829,VALID,116,VALID,1.01934,
2002-03-07, 00:30:00,VALID,918.822,VALID,0,VALID,99.5107,VALID,0.0509425,VALID,18.9894,VALID,129,VALID,0.775841,
2002-03-07, 00:31:00,VALID,918.8,VALID,0,VALID,99.5183,VALID,0.0169808,VALID,18.9891,VALID,118,VALID,0.966747,
2002-03-07, 00:32:00,VALID,918.786,VALID,0,VALID,99.5094,VALID,0.0509425,VALID,18.9921,VALID,119,VALID,0.912946,
2002-03-07, 00:33:00,VALID,918.752,VALID,0,VALID,99.5107,VALID,0.0169808,VALID,18.9928,VALID,112,VALID,0.811699,
2002-03-07, 00:34:00,VALID,918.738,VALID,0,VALID,99.517,VALID,0.0169808,VALID,18.9995,VALID,126,VALID,0.20477,
2002-03-07, 00:35:00,VALID,918.728,VALID,0,VALID,99.517,VALID,0,VALID,19.0058,VALID,119,VALID,0.14597,
2002-03-07, 00:36:00,VALID,918.715,VALID,0,VALID,99.512,VALID,0.0509425,VALID,19.0018,VALID,113,VALID,0.707031,
2002-03-07, 00:37:00,VALID,918.681,VALID,0,VALID,99.5183,VALID,0.0169808,VALID,19.0053,VALID,111,VALID,0.530816,
2002-03-07, 00:38:00,VALID,918.668,VALID,0,VALID,99.5081,VALID,0.0169808,VALID,19.0115,VALID,99,VALID,0.545726,
2002-03-07, 00:39:00,VALID,918.664,VALID,0,VALID,99.5107,VALID,0.0169808,VALID,19.0018,VALID,116,VALID,0.853463,
2002-03-07, 00:40:00,VALID,918.63,VALID,0,VALID,99.5069,VALID,-0.0339617,VALID,19.006,VALID,115,VALID,0.858974,
2002-03-07, 00:41:00,VALID,918.616,VALID,0,VALID,99.5043,VALID,-0.0679233,VALID,19.0162,VALID,110,VALID,1.07252,
2002-03-07, 00:42:00,VALID,918.582,VALID,0,VALID,99.5043,VALID,-0.0169808,VALID,19.0254,VALID,107,VALID,0.922676,
2002-03-07, 00:43:00,VALID,918.558,VALID,0,VALID,99.5056,VALID,-0.0339617,VALID,19.0224,VALID,104,VALID,0.918304,
2002-03-07, 00:44:00,VALID,918.525,VALID,0,VALID,99.5069,VALID,-0.0679233,VALID,19.0159,VALID,101,VALID,0.9625,
2002-03-07, 00:45:00,VALID,918.511,VALID,0,VALID,99.5031,VALID,-0.0339617,VALID,19.0259,VALID,92,VALID,1.00254,
2002-03-07, 00:46:00,VALID,918.485,VALID,0,VALID,99.4992,VALID,-0.0339617,VALID,19.0062,VALID,84,VALID,0.789453,
2002-03-07, 00:47:00,VALID,918.47,VALID,0,VALID,99.5043,VALID,-0.0509425,VALID,18.9998,VALID,83,VALID,0.980363,
2002-03-07, 00:48:00,VALID,918.448,VALID,0,VALID,99.5031,VALID,-0.0339617,VALID,18.9936,VALID,94,VALID,0.745877,
2002-03-07, 00:49:00,VALID,918.434,VALID,0,VALID,99.5094,VALID,-0.0679233,VALID,19.0065,VALID,95,VALID,1.03125,
2002-03-07, 00:50:00,VALID,918.434,VALID,0,VALID,99.5056,VALID,-0.0339617,VALID,19.003,VALID,99,VALID,1.03674,
2002-03-07, 00:51:00,VALID,918.413,VALID,0,VALID,99.512,VALID,-0.0509425,VALID,19.0032,VALID,102,VALID,0.935811,
2002-03-07, 00:52:00,VALID,918.403,VALID,0,VALID,99.5018,VALID,-0.0169808,VALID,19.006,VALID,108,VALID,0.670072,
2002-03-07, 00:53:00,VALID,918.405,VALID,0,VALID,99.5094,VALID,-0.0509425,VALID,19.0157,VALID,121,VALID,0.748397,
2002-03-07, 00:54:00,VALID,918.408,VALID,0,VALID,99.5043,VALID,0,VALID,19.0286,VALID,117,VALID,1.17545,
2002-03-07, 00:55:00,VALID,918.411,VALID,0,VALID,99.5183,VALID,-0.0339617,VALID,19.0522,VALID,124,VALID,0.739309,
2002-03-07, 00:56:00,VALID,918.396,VALID,0,VALID,99.5196,VALID,-0.0509425,VALID,19.045,VALID,142,VALID,0.773438,
2002-03-07, 00:57:00,VALID,918.394,VALID,0,VALID,99.5094,VALID,0,VALID,19.0549,VALID,108,VALID,0.93418,
2002-03-07, 00:58:00,VALID,918.413,VALID,0,VALID,99.5094,VALID,0,VALID,19.0515,VALID,124,VALID,0.988809,
2002-03-07, 00:59:00,VALID,918.419,VALID,0,VALID,99.5107,VALID,-0.0339617,VALID,19.0517,VALID,119,VALID,1.1022,
2002-03-07, 01:00:00,VALID,918.415,VALID,0,VALID,99.5196,VALID,-0.0339617,VALID,19.045,VALID,109,VALID,0.8227,
2002-03-07, 01:01:00,VALID,918.403,VALID,0,VALID,99.5069,VALID,-0.0169808,VALID,19.0455,VALID,101,VALID,0.64668,
2002-03-07, 01:02:00,VALID,918.41,VALID,0,VALID,99.512,VALID,0,VALID,19.0288,VALID,107,VALID,0.741406,
2002-03-07, 01:03:00,VALID,918.392,VALID,0,VALID,99.517,VALID,-0.0339617,VALID,19.0286,VALID,119,VALID,0.754207,
2002-03-07, 01:04:00,VALID,918.377,VALID,0,VALID,99.5132,VALID,-0.0169808,VALID,19.0321,VALID,126,VALID,0.713141,
2002-03-07, 01:05:00,VALID,918.347,VALID,0,VALID,99.5107,VALID,0,VALID,19.0388,VALID,127,VALID,0.569643,
2002-03-07, 01:06:00,VALID,918.323,VALID,0,VALID,99.5183,VALID,-0.0169808,VALID,19.0293,VALID,95,VALID,0.665264,
2002-03-07, 01:07:00,VALID,918.296,VALID,0,VALID,99.5158,VALID,0,VALID,19.0291,VALID,101,VALID,0.584087,
2002-03-07, 01:08:00,VALID,918.269,VALID,0,VALID,99.5145,VALID,-0.0339617,VALID,19.0189,VALID,104,VALID,0.795847,
2002-03-07, 01:09:00,VALID,918.246,VALID,0,VALID,99.5145,VALID,-0.0679233,VALID,19.0261,VALID,101,VALID,0.719618,
2002-03-07, 01:10:00,VALID,918.228,VALID,0,VALID,99.5132,VALID,-0.0339617,VALID,19.0395,VALID,101,VALID,0.670356,
2002-03-07, 01:11:00,VALID,918.216,VALID,0,VALID,99.5107,VALID,-0.0849042,VALID,19.0194,VALID,102,VALID,0.602482,
2002-03-07, 01:12:00,VALID,918.197,VALID,0,VALID,99.5145,VALID,-0.0509425,VALID,19.003,VALID,99,VALID,0.750845,
2002-03-07, 01:13:00,VALID,918.194,VALID,0,VALID,99.5209,VALID,-0.0169808,VALID,19.0062,VALID,97,VALID,0.78125,
2002-03-07, 01:14:00,VALID,918.18,VALID,0,VALID,99.5132,VALID,-0.0339617,VALID,18.9799,VALID,93,VALID,0.971755,
2002-03-07, 01:15:00,VALID,918.172,VALID,0,VALID,99.5196,VALID,-0.0509425,VALID,18.9804,VALID,94,VALID,1.02344,
2002-03-07, 01:16:00,VALID,918.175,VALID,0,VALID,99.5183,VALID,0,VALID,18.9707,VALID,104,VALID,0.864955,
2002-03-07, 01:17:00,VALID,918.157,VALID,0,VALID,99.517,VALID,0,VALID,18.9802,VALID,119,VALID,0.928711,
2002-03-07, 01:18:00,VALID,918.138,VALID,0,VALID,99.5196,VALID,-0.0169808,VALID,18.9799,VALID,120,VALID,0.851367,
2002-03-07, 01:19:00,VALID,918.138,VALID,0,VALID,99.5221,VALID,-0.0339617,VALID,18.9998,VALID,132,VALID,0.604883,
2002-03-07, 01:20:00,VALID,918.112,VALID,0,VALID,99.5221,VALID,-0.0169808,VALID,19.0065,VALID,138,VALID,0.512458,
2002-03-07, 01:21:00,VALID,918.117,VALID,0,VALID,99.5247,VALID,-0.0169808,VALID,19.0095,VALID,141,VALID,0.764323,
2002-03-07, 01:22:00,VALID,918.112,VALID,0,VALID,99.5209,VALID,0,VALID,19.0122,VALID,148,VALID,1.22076,
2002-03-07, 01:23:00,VALID,918.098,VALID,0,VALID,99.517,VALID,0,VALID,19.0226,VALID,148,VALID,1.08361,
2002-03-07, 01:24:00,VALID,918.1,VALID,0,VALID,99.5132,VALID,-0.0169808,VALID,19.0092,VALID,152,VALID,0.927154,
2002-03-07, 01:25:00,VALID,918.092,VALID,0,VALID,99.5196,VALID,0,VALID,19.0122,VALID,151,VALID,0.695713,
2002-03-07, 01:26:00,VALID,918.085,VALID,0,VALID,99.5158,VALID,0,VALID,19.0159,VALID,150,VALID,0.824319,
2002-03-07, 01:27:00,VALID,918.083,VALID,0,VALID,99.5234,VALID,-0.0169808,VALID,19.0125,VALID,145,VALID,1.17924,
2002-03-07, 01:28:00,VALID,918.069,VALID,0,VALID,99.5183,VALID,-0.0169808,VALID,19.0192,VALID,139,VALID,0.826891,
2002-03-07, 01:29:00,VALID,918.069,VALID,0,VALID,99.517,VALID,0,VALID,19.0023,VALID,111,VALID,0.505008,
2002-03-07, 01:30:00,VALID,918.057,VALID,0,VALID,99.512,VALID,0,VALID,19.0028,VALID,101,VALID,0.39707,
2002-03-07, 01:31:00,VALID,918.052,VALID,0,VALID,99.5158,VALID,0,VALID,19.0095,VALID,136,VALID,0.112542,
2002-03-07, 01:32:00,VALID,918.046,VALID,0,VALID,99.5285,VALID,-0.0339617,VALID,18.9995,VALID,144,VALID,0,
2002-03-07, 01:33:00,VALID,918.04,VALID,0,VALID,99.5209,VALID,0,VALID,18.9931,VALID,129,VALID,0.40625,
2002-03-07, 01:34:00,VALID,918.029,VALID,0,VALID,99.517,VALID,-0.0169808,VALID,18.9933,VALID,122,VALID,0.398828,
2002-03-07, 01:35:00,VALID,918.018,VALID,0,VALID,99.5259,VALID,0,VALID,18.9861,VALID,153,VALID,0.479883,
2002-03-07, 01:36:00,VALID,918.013,VALID,0,VALID,99.5196,VALID,-0.0169808,VALID,19.0032,VALID,132,VALID,0.1873,
2002-03-07, 01:37:00,VALID,918.002,VALID,0,VALID,99.5183,VALID,-0.0339617,VALID,18.9993,VALID,119,VALID,0.495593,
2002-03-07, 01:38:00,VALID,918.008,VALID,0,VALID,99.5259,VALID,-0.0509425,VALID,19.0127,VALID,121,VALID,0.553571,
2002-03-07, 01:39:00,VALID,918.014,VALID,0,VALID,99.5221,VALID,-0.0339617,VALID,18.9931,VALID,119,VALID,0.783654,
2002-03-07, 01:40:00,VALID,918.013,VALID,0,VALID,99.5234,VALID,-0.0169808,VALID,18.9864,VALID,122,VALID,0.759046,
2002-03-07, 01:41:00,VALID,918.022,VALID,0,VALID,99.5247,VALID,0,VALID,18.9869,VALID,157,VALID,1.04112,
2002-03-07, 01:42:00,VALID,918.03,VALID,0,VALID,99.5285,VALID,-0.0339617,VALID,18.9802,VALID,149,VALID,0.865234,
2002-03-07, 01:43:00,VALID,918.038,VALID,0,VALID,99.531,VALID,-0.0679233,VALID,18.9866,VALID,153,VALID,0.759983,
2002-03-07, 01:44:00,VALID,918.043,VALID,0,VALID,99.5298,VALID,-0.0169808,VALID,18.9864,VALID,147,VALID,0.626608,
2002-03-07, 01:45:00,VALID,918.049,VALID,0,VALID,99.5285,VALID,0,VALID,18.9861,VALID,168,VALID,0.790118,
2002-03-07, 01:46:00,VALID,918.044,VALID,0,VALID,99.517,VALID,0.0339617,VALID,18.9896,VALID,164,VALID,0.569712,
2002-03-07, 01:47:00,VALID,918.045,VALID,0,VALID,99.5247,VALID,0,VALID,18.9797,VALID,148,VALID,0.522035,
2002-03-07, 01:48:00,VALID,918.025,VALID,0,VALID,99.5247,VALID,0,VALID,18.9767,VALID,169,VALID,0.663662,
2002-03-07, 01:49:00,VALID,918.019,VALID,0,VALID,99.5323,VALID,0,VALID,18.9804,VALID,139,VALID,0.381473,
2002-03-07, 01:50:00,VALID,917.99,VALID,0,VALID,99.5247,VALID,-0.0169808,VALID,18.9802,VALID,155,VALID,0.515625,
2002-03-07, 01:51:00,VALID,917.989,VALID,0,VALID,99.5259,VALID,-0.0169808,VALID,18.9836,VALID,168,VALID,0.292188,
2002-03-07, 01:52:00,VALID,917.962,VALID,0,VALID,99.5234,VALID,-0.0169808,VALID,18.9839,VALID,168,VALID,0.495313,
2002-03-07, 01:53:00,VALID,917.956,VALID,0,VALID,99.5272,VALID,0,VALID,18.9802,VALID,170,VALID,0.40625,
2002-03-07, 01:54:00,VALID,917.953,VALID,0,VALID,99.5259,VALID,-0.0169808,VALID,18.964,VALID,176,VALID,0.282769,
2002-03-07, 01:55:00,VALID,917.946,VALID,0,VALID,99.5259,VALID,0.0169808,VALID,18.9735,VALID,170,VALID,0.51317,
2002-03-07, 01:56:00,VALID,917.941,VALID,0,VALID,99.5259,VALID,0.101885,VALID,18.9497,VALID,174,VALID,0.675887,
2002-03-07, 01:57:00,VALID,917.917,VALID,0,VALID,99.5234,VALID,0.0849042,VALID,18.9464,VALID,152,VALID,0.301943,
2002-03-07, 01:58:00,VALID,917.912,VALID,0,VALID,99.5272,VALID,0.101885,VALID,18.9333,VALID,151,VALID,0.629607,
2002-03-07, 01:59:00,VALID,917.885,VALID,0,VALID,99.5259,VALID,0.101885,VALID,18.9437,VALID,151,VALID,0.764022,
2002-03-07, 02:00:00,VALID,917.87,VALID,0,VALID,99.5272,VALID,0.0849042,VALID,18.9335,VALID,149,VALID,0.757143,
2002-03-07, 02:01:00,VALID,917.86,VALID,0,VALID,99.5336,VALID,0.0849042,VALID,18.9268,VALID,146,VALID,1.08121,
2002-03-07, 02:02:00,VALID,917.831,VALID,0,VALID,99.5285,VALID,0.0509425,VALID,18.9566,VALID,141,VALID,1.04567,
2002-03-07, 02:03:00,VALID,917.828,VALID,0,VALID,99.5209,VALID,0.0339617,VALID,18.9467,VALID,125,VALID,0.587305,
2002-03-07, 02:04:00,VALID,917.797,VALID,0,VALID,99.5259,VALID,0.0849042,VALID,18.9499,VALID,118,VALID,0.858108,
2002-03-07, 02:05:00,VALID,917.782,VALID,0,VALID,99.5323,VALID,0.0679233,VALID,18.9333,VALID,119,VALID,0.866976,
2002-03-07, 02:06:00,VALID,917.776,VALID,0,VALID,99.5145,VALID,0.101885,VALID,18.9238,VALID,128,VALID,0.775608,
2002-03-07, 02:07:00,VALID,917.756,VALID,0,VALID,99.5209,VALID,0.101885,VALID,18.93,VALID,142,VALID,1.11289,
2002-03-07, 02:08:00,VALID,917.742,VALID,0,VALID,99.5196,VALID,0.101885,VALID,18.9397,VALID,129,VALID,0.927148,
2002-03-07, 02:09:00,VALID,917.725,VALID,0,VALID,99.5259,VALID,0.0849042,VALID,18.9497,VALID,117,VALID,0.745593,
2002-03-07, 02:10:00,VALID,917.723,VALID,0,VALID,99.5285,VALID,0,VALID,18.9444,VALID,121,VALID,0.97496,
2002-03-07, 02:11:00,VALID,917.712,VALID,0,VALID,99.5221,VALID,0,VALID,18.9513,VALID,122,VALID,0.686384,
2002-03-07, 02:12:00,VALID,917.698,VALID,0,VALID,99.517,VALID,-0.0169808,VALID,18.9379,VALID,119,VALID,0.728566,
2002-03-07, 02:13:00,VALID,917.695,VALID,0,VALID,99.5183,VALID,0,VALID,18.9451,VALID,127,VALID,1.3382,
2002-03-07, 02:14:00,VALID,917.692,VALID,0,VALID,99.5259,VALID,0,VALID,18.9382,VALID,126,VALID,0.835115,
2002-03-07, 02:15:00,VALID,917.676,VALID,0,VALID,99.5183,VALID,0,VALID,18.9481,VALID,134,VALID,0.950738,
2002-03-07, 02:16:00,VALID,917.672,VALID,0,VALID,99.5158,VALID,-0.0339617,VALID,18.9516,VALID,101,VALID,0.756293,
2002-03-07, 02:17:00,VALID,917.656,VALID,0,VALID,99.5183,VALID,-0.0169808,VALID,18.9253,VALID,96,VALID,0.900965,
2002-03-07, 02:18:00,VALID,917.643,VALID,0,VALID,99.5196,VALID,-0.0169808,VALID,18.9225,VALID,95,VALID,1.06482,
2002-03-07, 02:19:00,VALID,917.619,VALID,0,VALID,99.5196,VALID,0,VALID,18.9158,VALID,91,VALID,1.05449,
2002-03-07, 02:20:00,VALID,917.589,VALID,0,VALID,99.5183,VALID,-0.0509425,VALID,18.8992,VALID,97,VALID,1.21454,
2002-03-07, 02:21:00,VALID,917.582,VALID,0,VALID,99.5158,VALID,-0.0169808,VALID,18.9059,VALID,100,VALID,0.892228,
2002-03-07, 02:22:00,VALID,917.561,VALID,0,VALID,99.5158,VALID,0,VALID,18.8927,VALID,78,VALID,0.734375,
2002-03-07, 02:23:00,VALID,917.558,VALID,0,VALID,99.5221,VALID,0,VALID,18.8835,VALID,103,VALID,0.886523,
2002-03-07, 02:24:00,VALID,917.552,VALID,0,VALID,99.5158,VALID,-0.0509425,VALID,18.8731,VALID,74,VALID,0.4625,
2002-03-07, 02:25:00,VALID,917.545,VALID,0,VALID,99.512,VALID,-0.0169808,VALID,18.8867,VALID,95,VALID,0.874805,
2002-03-07, 02:26:00,VALID,917.536,VALID,0,VALID,99.5247,VALID,-0.0169808,VALID,18.8803,VALID,89,VALID,0.757813,
2002-03-07, 02:27:00,VALID,917.532,VALID,0,VALID,99.5158,VALID,-0.0339617,VALID,18.8572,VALID,91,VALID,0.657769,
2002-03-07, 02:28:00,VALID,917.524,VALID,0,VALID,99.5209,VALID,-0.0509425,VALID,18.8706,VALID,82,VALID,0.38683,
2002-03-07, 02:29:00,VALID,917.522,VALID,0,VALID,99.517,VALID,0,VALID,18.8639,VALID,77,VALID,0.519426,
2002-03-07, 02:30:00,VALID,917.511,VALID,0,VALID,99.512,VALID,-0.0169808,VALID,18.8607,VALID,97,VALID,0.734164,
2002-03-07, 02:31:00,VALID,917.513,VALID,0,VALID,99.5234,VALID,-0.0339617,VALID,18.8475,VALID,97,VALID,0.876803,
2002-03-07, 02:32:00,VALID,917.501,VALID,0,VALID,99.5298,VALID,-0.0339617,VALID,18.8611,VALID,97,VALID,0.840946,
2002-03-07, 02:33:00,VALID,917.492,VALID,0,VALID,99.5234,VALID,-0.0339617,VALID,18.8676,VALID,119,VALID,0.433482,
2002-03-07, 02:34:00,VALID,917.481,VALID,0,VALID,99.5247,VALID,-0.0169808,VALID,18.854,VALID,110,VALID,0.458882,
2002-03-07, 02:35:00,VALID,917.459,VALID,0,VALID,99.5323,VALID,-0.0509425,VALID,18.8674,VALID,113,VALID,0.479167,
2002-03-07, 02:36:00,VALID,917.441,VALID,0,VALID,99.5247,VALID,-0.0339617,VALID,18.8671,VALID,130,VALID,0.581836,
2002-03-07, 02:37:00,VALID,917.424,VALID,0,VALID,99.5285,VALID,0,VALID,18.884,VALID,137,VALID,0.435811,
2002-03-07, 02:38:00,VALID,917.399,VALID,0,VALID,99.531,VALID,-0.0339617,VALID,18.8807,VALID,142,VALID,0.424831,
2002-03-07, 02:39:00,VALID,917.394,VALID,0,VALID,99.5272,VALID,-0.0339617,VALID,18.8805,VALID,151,VALID,0.454427,
2002-03-07, 02:40:00,VALID,917.38,VALID,0,VALID,99.5221,VALID,-0.0679233,VALID,18.8775,VALID,161,VALID,0.493945,
2002-03-07, 02:41:00,VALID,917.361,VALID,0,VALID,99.5209,VALID,-0.0509425,VALID,18.8741,VALID,151,VALID,0.492188,
2002-03-07, 02:42:00,VALID,917.364,VALID,0,VALID,99.5336,VALID,-0.0679233,VALID,18.8713,VALID,156,VALID,0.432091,
2002-03-07, 02:43:00,VALID,917.354,VALID,0,VALID,99.5247,VALID,-0.0339617,VALID,18.8644,VALID,160,VALID,0.624399,
2002-03-07, 02:44:00,VALID,917.351,VALID,0,VALID,99.531,VALID,-0.0679233,VALID,18.851,VALID,167,VALID,0.739509,
2002-03-07, 02:45:00,VALID,917.339,VALID,0,VALID,99.5272,VALID,-0.0339617,VALID,18.8551,VALID,161,VALID,0.55629,
2002-03-07, 02:46:00,VALID,917.332,VALID,0,VALID,99.5247,VALID,-0.0339617,VALID,18.8415,VALID,158,VALID,0.435033,
2002-03-07, 02:47:00,VALID,917.327,VALID,0,VALID,99.5247,VALID,-0.0679233,VALID,18.8487,VALID,151,VALID,0.710732,
2002-03-07, 02:48:00,VALID,917.32,VALID,0,VALID,99.5196,VALID,-0.0509425,VALID,18.8487,VALID,152,VALID,0.515408,
2002-03-07, 02:49:00,VALID,917.308,VALID,0,VALID,99.531,VALID,-0.0509425,VALID,18.8425,VALID,147,VALID,0.696181,
2002-03-07, 02:50:00,VALID,917.292,VALID,0,VALID,99.5323,VALID,-0.0509425,VALID,18.8455,VALID,143,VALID,0.605699,
2002-03-07, 02:51:00,VALID,917.295,VALID,0,VALID,99.531,VALID,-0.0509425,VALID,18.8455,VALID,140,VALID,0.40984,
2002-03-07, 02:52:00,VALID,917.285,VALID,0,VALID,99.5247,VALID,-0.0509425,VALID,18.8489,VALID,101,VALID,0.48097,
2002-03-07, 02:53:00,VALID,917.282,VALID,0,VALID,99.5323,VALID,-0.0679233,VALID,18.8328,VALID,82,VALID,0.30629,
2002-03-07, 02:54:00,VALID,917.26,VALID,0,VALID,99.5234,VALID,-0.0339617,VALID,18.8328,VALID,85,VALID,0.401442,
2002-03-07, 02:55:00,VALID,917.247,VALID,0,VALID,99.5259,VALID,-0.0509425,VALID,18.8199,VALID,83,VALID,0.402455,
2002-03-07, 02:56:00,VALID,917.233,VALID,0,VALID,99.5285,VALID,-0.0849042,VALID,18.8164,VALID,81,VALID,0.553906,
2002-03-07, 02:57:00,VALID,917.221,VALID,0,VALID,99.5221,VALID,-0.101885,VALID,18.8037,VALID,63,VALID,0.307031,
2002-03-07, 02:58:00,VALID,917.22,VALID,0,VALID,99.5183,VALID,-0.101885,VALID,18.8037,VALID,75,VALID,0.442383,
2002-03-07, 02:59:00,VALID,917.218,VALID,0,VALID,99.5221,VALID,-0.0679233,VALID,18.7968,VALID,80,VALID,0.386402,
2002-03-07, 03:00:00,VALID,917.214,VALID,0,VALID,99.5272,VALID,-0.0509425,VALID,18.7965,VALID,80,VALID,0.287326,
2002-03-07, 03:01:00,VALID,917.201,VALID,0,VALID,99.5259,VALID,-0.0509425,VALID,18.8236,VALID,80,VALID,0.350223,
2002-03-07, 03:02:00,VALID,917.209,VALID,0,VALID,99.531,VALID,-0.0339617,VALID,18.8132,VALID,75,VALID,0.306166,
2002-03-07, 03:03:00,VALID,917.216,VALID,0,VALID,99.5221,VALID,-0.0849042,VALID,18.8199,VALID,67,VALID,0.634924,
2002-03-07, 03:04:00,VALID,917.202,VALID,0,VALID,99.5298,VALID,-0.0849042,VALID,18.7836,VALID,61,VALID,0.496194,
2002-03-07, 03:05:00,VALID,917.194,VALID,0,VALID,99.5336,VALID,-0.0679233,VALID,18.7876,VALID,82,VALID,0.729968,
2002-03-07, 03:06:00,VALID,917.19,VALID,0,VALID,99.5387,VALID,-0.0679233,VALID,18.7617,VALID,90,VALID,0.664509,
2002-03-07, 03:07:00,VALID,917.173,VALID,0,VALID,99.531,VALID,-0.0679233,VALID,18.7615,VALID,90,VALID,0.579975,
2002-03-07, 03:08:01,VALID,917.147,VALID,0,VALID,99.5361,VALID,-0.0509425,VALID,18.7615,VALID,94,VALID,0.71234,
2002-03-07, 03:09:00,VALID,917.141,VALID,0,VALID,99.5425,VALID,-0.0509425,VALID,18.7615,VALID,104,VALID,0.855078,
2002-03-07, 03:10:00,VALID,917.117,VALID,0,VALID,99.5437,VALID,-0.0169808,VALID,18.7682,VALID,103,VALID,0.899071,
2002-03-07, 03:11:00,VALID,917.108,VALID,0,VALID,99.5374,VALID,-0.0679233,VALID,18.7712,VALID,88,VALID,0.760557,
2002-03-07, 03:12:00,VALID,917.116,VALID,0,VALID,99.5336,VALID,-0.0849042,VALID,18.7779,VALID,88,VALID,0.639106,
2002-03-07, 03:13:00,VALID,917.12,VALID,0,VALID,99.5374,VALID,-0.0679233,VALID,18.7712,VALID,87,VALID,0.459766,
2002-03-07, 03:14:00,VALID,917.114,VALID,0,VALID,99.5374,VALID,-0.0849042,VALID,18.7682,VALID,65,VALID,0.358984,
2002-03-07, 03:15:00,VALID,917.138,VALID,0,VALID,99.5361,VALID,-0.0679233,VALID,18.7617,VALID,84,VALID,0.305489,
2002-03-07, 03:16:01,VALID,917.15,VALID,0,VALID,99.5336,VALID,-0.0849042,VALID,18.7583,VALID,87,VALID,0.128205,
2002-03-07, 03:17:00,VALID,917.142,VALID,0,VALID,99.5387,VALID,-0.0679233,VALID,18.7615,VALID,130,VALID,0.258705,
2002-03-07, 03:18:00,VALID,917.163,VALID,0,VALID,99.5348,VALID,-0.0679233,VALID,18.7679,VALID,143,VALID,0.0735176,
2002-03-07, 03:19:00,VALID,917.18,VALID,0,VALID,99.5425,VALID,-0.101885,VALID,18.7811,VALID,149,VALID,0.0931332,
2002-03-07, 03:20:01,VALID,917.19,VALID,0,VALID,99.5361,VALID,-0.0509425,VALID,18.7943,VALID,180,VALID,0.258018,
2002-03-07, 03:21:00,VALID,917.187,VALID,0,VALID,99.5374,VALID,-0.0679233,VALID,18.8005,VALID,132,VALID,0.226563,
2002-03-07, 03:22:00,VALID,917.18,VALID,0,VALID,99.5361,VALID,-0.0509425,VALID,18.8102,VALID,129,VALID,0.105686,
2002-03-07, 03:23:01,VALID,917.164,VALID,0,VALID,99.5399,VALID,-0.0339617,VALID,18.8032,VALID,139,VALID,0.100414,
2002-03-07, 03:24:00,VALID,917.158,VALID,0,VALID,99.5412,VALID,-0.0339617,VALID,18.7998,VALID,148,VALID,0.826014,
2002-03-07, 03:25:00,VALID,917.141,VALID,0,VALID,99.5361,VALID,-0.0509425,VALID,18.7935,VALID,111,VALID,0.396034,
2002-03-07, 03:26:00,VALID,917.146,VALID,0,VALID,99.5259,VALID,-0.0169808,VALID,18.8037,VALID,103,VALID,0.363582,
2002-03-07, 03:27:00,VALID,917.143,VALID,0,VALID,99.531,VALID,-0.0509425,VALID,18.8002,VALID,122,VALID,0.247596,
2002-03-07, 03:28:00,VALID,917.144,VALID,0,VALID,99.5374,VALID,-0.0339617,VALID,18.797,VALID,108,VALID,0.599107,
2002-03-07, 03:29:00,VALID,917.141,VALID,0,VALID,99.5425,VALID,-0.0509425,VALID,18.8037,VALID,110,VALID,0.348437,
2002-03-07, 03:30:00,VALID,917.134,VALID,0,VALID,99.5399,VALID,-0.0339617,VALID,18.8164,VALID,133,VALID,0.708008,
2002-03-07, 03:31:00,VALID,917.13,VALID,0,VALID,99.5323,VALID,-0.0169808,VALID,18.8358,VALID,143,VALID,0.9125,